Zurück zum Katalog

FENGYUN 1C DEB

AktivSSO
NORAD 29958·DEBRIS·🇨🇳 China

Gestartet May 10, 1999 von Taiyuan Satellite Launch Center

Loading…

Nächste Überflüge (nächste 24 Stunden)

TLE

AktuellSource: Space-Track

Epoche: Sep 14, 2026, 06:23 UTC

1 29958U 99025KG  26257.26663601  .00000271  00000-0  16077-3 0  9994
2 29958  98.6608 268.5049 0053396 264.3445  95.1638 14.14699377 13401

Verfolge FENGYUN 1C DEB in Echtzeit mit AllMySat

Download on the App Store